Location: Grums
(59.3529°N, 13.1129°E)
Time: 01:32:48
(UTC+01:00)

SEEDS - Pass Details

Date: 30 November 2021
Orbit: 584 x 600 km, 97.6° (Epoch: 27 January)

Event Time Altitude Azimuth Distance (km) Brightness Sun altitude
Rises 06:15:21 0° 12° (NNE) 2,833 ? -16.2°
Reaches altitude 10° 06:17:44 10° 1° (N) 1,926 ? -15.9°
Maximum altitude 06:21:18 28° 302° (WNW) 1,118 ? -15.4°
Enters shadow 06:21:38 28° 293° (WNW) 1,127 ? -15.4°
